SXN227 LOWW-HECA

Flight info

Callsign SXN227
Flight time 2h 58m
Altitude 39000
Route ARSIN DCT NALOX DCT BABIT DCT RAXAD DCT RUGAS DCT KOROS DCT KUMBI L612 BLT A16 CVO
Aircraft B738/M-SDE2E3FGHIRWXY/LB1

Departure

Time 2026-05-05 18:36
Airport Vienna International Airport (LOWW)

Arrival

Time 2026-05-05 21:34
Airport Cairo International Airport (HECA)
Time Latitude Longitude Altitude Speed Heading
2026-05-05 18:12 48.11600 16.57128 602 ft 0 kts 27°
2026-05-05 18:32 48.11626 16.57148 601 ft 8 kts 26°
2026-05-05 18:33 48.11657 16.57189 602 ft 5 kts 70°
2026-05-05 18:33 48.11650 16.57239 603 ft 0 kts 114°
2026-05-05 18:33 48.11635 16.57286 604 ft 10 kts 114°
2026-05-05 18:34 48.11643 16.57403 609 ft 13 kts 30°
2026-05-05 18:34 48.11725 16.57380 619 ft 6 kts 344°
2026-05-05 18:34 48.11767 16.57366 609 ft 7 kts 358°
2026-05-05 18:34 48.11806 16.57401 616 ft 7 kts 59°
2026-05-05 18:35 48.11832 16.57526 612 ft 21 kts 71°
2026-05-05 18:35 48.11861 16.57742 619 ft 21 kts 96°
2026-05-05 18:35 48.11775 16.57904 614 ft 20 kts 157°
2026-05-05 18:35 48.11595 16.57981 615 ft 53 kts 164°
2026-05-05 18:36 48.10986 16.58237 603 ft 125 kts 165°
2026-05-05 18:36 48.10007 16.58642 983 ft 153 kts 164°
2026-05-05 18:36 48.09044 16.59089 1850 ft 146 kts 166°
2026-05-05 18:36 48.08038 16.59551 1921 ft 147 kts 165°
2026-05-05 18:37 48.07128 16.60006 2184 ft 134 kts 165°
2026-05-05 18:37 48.06217 16.60456 2352 ft 144 kts 166°
2026-05-05 18:37 48.05204 16.60897 2876 ft 165 kts 170°
2026-05-05 18:37 48.04014 16.61311 3425 ft 180 kts 174°
2026-05-05 18:38 48.02774 16.61685 4153 ft 186 kts 172°
2026-05-05 18:38 48.01476 16.62195 4614 ft 205 kts 168°
2026-05-05 18:38 48.00018 16.62814 4881 ft 228 kts 168°
2026-05-05 18:38 47.98451 16.63375 5590 ft 233 kts 179°
2026-05-05 18:39 47.96850 16.63337 6510 ft 231 kts 185°
2026-05-05 18:39 47.95216 16.63230 7266 ft 238 kts 185°
2026-05-05 18:39 47.93558 16.63124 8117 ft 240 kts 185°
2026-05-05 18:39 47.91877 16.63016 8927 ft 244 kts 185°
2026-05-05 18:40 47.90166 16.62908 9693 ft 251 kts 184°
2026-05-05 18:40 47.88406 16.62796 10482 ft 251 kts 185°
2026-05-05 18:40 47.86652 16.62685 11330 ft 252 kts 184°
2026-05-05 18:40 47.84878 16.62840 12088 ft 260 kts 168°
2026-05-05 18:41 47.83127 16.63632 12783 ft 271 kts 166°
2026-05-05 18:41 47.81245 16.64513 13065 ft 296 kts 165°
2026-05-05 18:41 47.79191 16.65464 13304 ft 320 kts 165°
2026-05-05 18:41 47.77022 16.66453 13893 ft 330 kts 166°
2026-05-05 18:42 47.74796 16.67453 14521 ft 339 kts 166°
2026-05-05 18:42 47.72504 16.68472 15179 ft 345 kts 166°
2026-05-05 18:42 47.70219 16.69485 16179 ft 343 kts 166°
2026-05-05 18:42 47.67945 16.70484 16908 ft 348 kts 166°
2026-05-05 18:43 47.65606 16.71507 17700 ft 352 kts 166°
2026-05-05 18:43 47.63242 16.72541 18443 ft 355 kts 167°
2026-05-05 18:43 47.60847 16.73586 19013 ft 362 kts 166°
2026-05-05 18:43 47.58409 16.74649 19554 ft 369 kts 166°
2026-05-05 18:44 47.55901 16.75518 20143 ft 372 kts 175°
2026-05-05 18:44 47.53324 16.75845 20878 ft 371 kts 179°
2026-05-05 18:44 47.50736 16.76075 21472 ft 376 kts 179°
2026-05-05 18:44 47.48102 16.76291 22021 ft 381 kts 179°
2026-05-05 18:45 47.45456 16.76514 22767 ft 382 kts 179°
2026-05-05 18:45 47.42787 16.76748 23297 ft 387 kts 179°
2026-05-05 18:45 47.40083 16.76993 23837 ft 390 kts 178°
2026-05-05 18:45 47.37371 16.77246 24408 ft 391 kts 178°
2026-05-05 18:46 47.34634 16.77504 24853 ft 396 kts 178°
2026-05-05 18:46 47.31874 16.77766 25335 ft 399 kts 178°
2026-05-05 18:46 47.29094 16.78031 25832 ft 402 kts 178°
2026-05-05 18:46 47.26295 16.78297 26316 ft 404 kts 178°
2026-05-05 18:47 47.23479 16.78564 26766 ft 408 kts 179°
2026-05-05 18:47 47.20635 16.78833 27203 ft 411 kts 178°
2026-05-05 18:47 47.17812 16.79100 27648 ft 414 kts 179°
2026-05-05 18:47 47.14927 16.79373 28097 ft 416 kts 178°
2026-05-05 18:48 47.12026 16.79647 28536 ft 419 kts 179°
2026-05-05 18:48 47.09111 16.79923 28950 ft 422 kts 179°
2026-05-05 18:48 47.06176 16.80199 29345 ft 425 kts 179°
2026-05-05 18:48 47.03214 16.80478 29735 ft 427 kts 178°
2026-05-05 18:49 47.00238 16.80758 30102 ft 430 kts 179°
2026-05-05 18:49 46.97238 16.81040 30407 ft 433 kts 179°
2026-05-05 18:49 46.94224 16.81323 30706 ft 435 kts 179°
2026-05-05 18:49 46.91198 16.81675 30992 ft 440 kts 173°
2026-05-05 18:50 46.88270 16.83084 31253 ft 449 kts 154°
2026-05-05 18:50 46.85694 16.85698 31558 ft 456 kts 139°
2026-05-05 18:50 46.83680 16.89297 31810 ft 462 kts 125°
2026-05-05 18:50 46.81956 16.93285 32127 ft 464 kts 124°
2026-05-05 18:51 46.80268 16.97312 32431 ft 466 kts 123°
2026-05-05 18:51 46.78587 17.01345 32788 ft 466 kts 123°
2026-05-05 18:51 46.76896 17.05372 33174 ft 465 kts 123°
2026-05-05 18:51 46.75196 17.09378 33540 ft 465 kts 123°
2026-05-05 18:52 46.73479 17.13384 33864 ft 465 kts 124°
2026-05-05 18:52 46.71758 17.17371 34142 ft 466 kts 124°
2026-05-05 18:52 46.70027 17.21362 34452 ft 465 kts 124°
2026-05-05 18:52 46.68296 17.25344 34767 ft 464 kts 124°
2026-05-05 18:53 46.66565 17.29316 35034 ft 464 kts 124°
2026-05-05 18:53 46.64834 17.33287 35337 ft 464 kts 124°
2026-05-05 18:53 46.63106 17.37244 35647 ft 463 kts 124°
2026-05-05 18:53 46.61375 17.41203 35965 ft 462 kts 124°
2026-05-05 18:54 46.59673 17.45092 36251 ft 462 kts 124°
2026-05-05 18:54 46.57946 17.49033 36537 ft 462 kts 124°
2026-05-05 18:54 46.56220 17.52964 36831 ft 461 kts 124°
2026-05-05 18:54 46.54497 17.56886 37121 ft 461 kts 124°
2026-05-05 18:55 46.52772 17.60805 37401 ft 460 kts 124°
2026-05-05 18:55 46.51046 17.64722 37683 ft 459 kts 124°
2026-05-05 18:55 46.49325 17.68619 37965 ft 459 kts 124°
2026-05-05 18:55 46.47601 17.72521 38202 ft 459 kts 124°
2026-05-05 18:56 46.45874 17.76421 38399 ft 460 kts 124°
2026-05-05 18:56 46.44144 17.80325 38631 ft 460 kts 124°
2026-05-05 18:56 46.42414 17.84222 38823 ft 460 kts 124°
2026-05-05 18:56 46.40682 17.88120 38935 ft 461 kts 124°
2026-05-05 18:57 46.37191 17.95957 38962 ft 463 kts 124°
2026-05-05 18:57 46.33702 18.03769 38947 ft 461 kts 124°
2026-05-05 18:58 46.30225 18.11533 38954 ft 458 kts 124°
2026-05-05 18:58 46.26760 18.19249 38961 ft 457 kts 124°
2026-05-05 18:59 46.23301 18.26927 38971 ft 456 kts 124°
2026-05-05 18:59 46.19836 18.34600 38965 ft 456 kts 124°
2026-05-05 19:00 46.16361 18.42274 38963 ft 457 kts 124°
2026-05-05 19:00 46.12877 18.49946 38970 ft 458 kts 124°
2026-05-05 19:01 46.09373 18.57641 38965 ft 460 kts 124°
2026-05-05 19:01 46.05879 18.65295 38962 ft 461 kts 124°
2026-05-05 19:02 46.02349 18.73007 38966 ft 462 kts 124°
2026-05-05 19:02 45.98803 18.80734 38969 ft 463 kts 124°
2026-05-05 19:03 45.95242 18.88468 38964 ft 464 kts 126°
2026-05-05 19:03 45.90931 18.95271 38969 ft 460 kts 144°
2026-05-05 19:04 45.85690 19.00482 38961 ft 458 kts 148°
2026-05-05 19:04 45.80384 19.05563 38961 ft 458 kts 148°
2026-05-05 19:05 45.75093 19.10678 38967 ft 458 kts 148°
2026-05-05 19:05 45.69827 19.15808 38967 ft 458 kts 147°
2026-05-05 19:06 45.64561 19.20945 38965 ft 458 kts 148°
2026-05-05 19:06 45.59298 19.26068 38971 ft 458 kts 148°
2026-05-05 19:07 45.54922 19.30318 38970 ft 458 kts 148°
2026-05-05 19:07 45.48770 19.36277 38966 ft 457 kts 148°
2026-05-05 19:08 45.43508 19.41360 38964 ft 457 kts 148°
2026-05-05 19:08 45.38270 19.46408 38966 ft 457 kts 148°
2026-05-05 19:09 45.33860 19.50651 38970 ft 457 kts 148°
2026-05-05 19:09 45.27728 19.56535 38969 ft 457 kts 148°
2026-05-05 19:10 45.22449 19.61589 38967 ft 458 kts 148°
2026-05-05 19:10 45.18056 19.65785 38965 ft 458 kts 148°
2026-05-05 19:11 45.12767 19.70827 38958 ft 459 kts 148°
2026-05-05 19:11 45.07465 19.75870 38959 ft 459 kts 148°
2026-05-05 19:12 45.02158 19.80907 38959 ft 460 kts 148°
2026-05-05 19:12 44.96843 19.85939 38951 ft 460 kts 148°
2026-05-05 19:13 44.91516 19.90972 38950 ft 461 kts 148°
2026-05-05 19:13 44.86184 19.95997 38947 ft 461 kts 148°
2026-05-05 19:14 44.80845 20.01018 38948 ft 462 kts 148°
2026-05-05 19:14 44.75522 20.06012 38948 ft 462 kts 148°
2026-05-05 19:15 44.70130 20.11060 38949 ft 463 kts 148°
2026-05-05 19:15 44.64762 20.16074 38947 ft 464 kts 148°
2026-05-05 19:16 44.59421 20.21052 38950 ft 464 kts 148°
2026-05-05 19:16 44.54037 20.26058 38957 ft 465 kts 148°
2026-05-05 19:17 44.48638 20.31067 38954 ft 465 kts 148°
2026-05-05 19:17 44.43239 20.36065 38958 ft 465 kts 148°
2026-05-05 19:18 44.37834 20.41057 38965 ft 465 kts 148°
2026-05-05 19:18 44.32427 20.46040 38956 ft 466 kts 148°
2026-05-05 19:19 44.27013 20.51017 38964 ft 466 kts 148°
2026-05-05 19:19 44.21597 20.55986 38960 ft 466 kts 148°
2026-05-05 19:20 44.16177 20.60947 38956 ft 466 kts 148°
2026-05-05 19:20 44.10752 20.65902 38964 ft 466 kts 148°
2026-05-05 19:21 44.05317 20.70854 38960 ft 466 kts 148°
2026-05-05 19:21 43.99922 20.75760 38964 ft 467 kts 148°
2026-05-05 19:22 43.94481 20.80696 38958 ft 467 kts 148°
2026-05-05 19:22 43.89039 20.85622 38966 ft 467 kts 148°
2026-05-05 19:23 43.83590 20.90544 38963 ft 468 kts 148°
2026-05-05 19:23 43.78133 20.95462 38963 ft 468 kts 148°
2026-05-05 19:24 43.72665 21.00379 38964 ft 469 kts 148°
2026-05-05 19:24 43.67194 21.05288 38961 ft 469 kts 148°
2026-05-05 19:25 43.61754 21.10158 38964 ft 469 kts 148°
2026-05-05 19:25 43.56275 21.15052 38966 ft 469 kts 148°
2026-05-05 19:26 43.50790 21.19941 38969 ft 469 kts 148°
2026-05-05 19:26 43.45301 21.24823 38972 ft 470 kts 148°
2026-05-05 19:27 43.39804 21.29701 38982 ft 470 kts 148°
2026-05-05 19:27 43.34305 21.34570 38978 ft 470 kts 148°
2026-05-05 19:28 43.28804 21.39431 38986 ft 470 kts 148°
2026-05-05 19:28 43.23298 21.44285 38985 ft 470 kts 148°
2026-05-05 19:29 43.17792 21.49129 38986 ft 471 kts 148°
2026-05-05 19:29 43.12274 21.53973 38989 ft 471 kts 148°
2026-05-05 19:30 43.06760 21.58802 38991 ft 471 kts 148°
2026-05-05 19:30 43.01236 21.63631 39001 ft 471 kts 148°
2026-05-05 19:31 42.95714 21.68446 38994 ft 471 kts 148°
2026-05-05 19:31 42.90188 21.73255 39001 ft 471 kts 149°
2026-05-05 19:32 42.84656 21.78059 39009 ft 471 kts 149°
2026-05-05 19:32 42.79122 21.82854 39004 ft 472 kts 149°
2026-05-05 19:33 42.73572 21.87653 39003 ft 473 kts 149°
2026-05-05 19:33 42.68014 21.92448 39014 ft 473 kts 149°
2026-05-05 19:34 42.62491 21.97204 39018 ft 474 kts 149°
2026-05-05 19:35 42.54129 22.04384 39027 ft 474 kts 149°
2026-05-05 19:35 42.48543 22.09168 39026 ft 475 kts 149°
2026-05-05 19:36 42.42943 22.13954 39025 ft 476 kts 149°
2026-05-05 19:36 42.37335 22.18738 39031 ft 477 kts 149°
2026-05-05 19:37 42.31717 22.23513 39029 ft 478 kts 150°
2026-05-05 19:37 42.25750 22.27358 39030 ft 475 kts 159°
2026-05-05 19:38 42.19631 22.30731 39028 ft 475 kts 160°
2026-05-05 19:38 42.13509 22.34119 39029 ft 475 kts 159°
2026-05-05 19:39 42.07405 22.37547 39026 ft 475 kts 159°
2026-05-05 19:39 42.01310 22.40988 39025 ft 475 kts 159°
2026-05-05 19:40 41.95261 22.44396 39018 ft 474 kts 159°
2026-05-05 19:40 41.89133 22.47840 39023 ft 474 kts 159°
2026-05-05 19:41 41.83090 22.51228 39029 ft 474 kts 159°
2026-05-05 19:41 41.76998 22.54635 39022 ft 474 kts 159°
2026-05-05 19:42 41.70899 22.58040 39022 ft 475 kts 159°
2026-05-05 19:42 41.64796 22.61440 39026 ft 476 kts 159°
2026-05-05 19:43 41.58669 22.64846 39016 ft 477 kts 159°
2026-05-05 19:43 41.52535 22.68249 39012 ft 478 kts 159°
2026-05-05 19:44 41.46393 22.71651 39014 ft 478 kts 159°
2026-05-05 19:44 41.40248 22.75047 39015 ft 478 kts 159°
2026-05-05 19:45 41.34106 22.78471 39017 ft 480 kts 156°
2026-05-05 19:45 41.28471 22.83243 39026 ft 481 kts 143°
2026-05-05 19:46 41.23140 22.88642 39026 ft 483 kts 143°
2026-05-05 19:46 41.17780 22.94050 39013 ft 484 kts 143°
2026-05-05 19:47 41.12386 22.99411 39016 ft 485 kts 143°
2026-05-05 19:47 41.06965 23.04752 39013 ft 486 kts 144°
2026-05-05 19:48 41.01542 23.10079 39017 ft 486 kts 144°
2026-05-05 19:48 40.96100 23.15415 39011 ft 487 kts 144°
2026-05-05 19:49 40.90690 23.20712 39018 ft 487 kts 144°
2026-05-05 19:49 40.85240 23.26037 39014 ft 487 kts 144°
2026-05-05 19:50 40.79792 23.31349 39015 ft 487 kts 144°
2026-05-05 19:50 40.74342 23.36652 39023 ft 487 kts 144°
2026-05-05 19:51 40.68892 23.41944 39023 ft 486 kts 144°
2026-05-05 19:51 40.63444 23.47223 39028 ft 486 kts 144°
2026-05-05 19:52 40.57997 23.52490 39031 ft 486 kts 144°
2026-05-05 19:52 40.52546 23.57749 39032 ft 486 kts 144°
2026-05-05 19:53 40.47094 23.63000 39035 ft 486 kts 144°
2026-05-05 19:53 40.41633 23.68247 39033 ft 486 kts 144°
2026-05-05 19:54 40.36175 23.73481 39039 ft 486 kts 144°
2026-05-05 19:54 40.30717 23.78705 39036 ft 486 kts 144°
2026-05-05 19:55 40.25256 23.83921 39042 ft 486 kts 144°
2026-05-05 19:55 40.19793 23.89128 39045 ft 486 kts 144°
2026-05-05 19:56 40.14326 23.94328 39043 ft 486 kts 144°
2026-05-05 19:56 40.09776 23.98648 39051 ft 486 kts 144°
2026-05-05 19:57 40.03410 24.04680 39047 ft 487 kts 144°
2026-05-05 19:57 39.97919 24.09871 39047 ft 487 kts 144°
2026-05-05 19:58 39.93357 24.14176 39049 ft 487 kts 144°
2026-05-05 19:58 39.87862 24.19352 39049 ft 487 kts 144°
2026-05-05 19:59 39.82364 24.24521 39047 ft 488 kts 144°
2026-05-05 19:59 39.76863 24.29681 39043 ft 488 kts 144°
2026-05-05 20:00 39.71356 24.34837 39047 ft 488 kts 144°
2026-05-05 20:00 39.65846 24.39986 39045 ft 488 kts 144°
2026-05-05 20:01 39.60342 24.45118 39049 ft 487 kts 144°
2026-05-05 20:01 39.54838 24.50241 39045 ft 487 kts 144°
2026-05-05 20:02 39.49335 24.55352 39051 ft 486 kts 145°
2026-05-05 20:02 39.43836 24.60450 39059 ft 486 kts 145°
2026-05-05 20:03 39.38341 24.65532 39055 ft 486 kts 145°
2026-05-05 20:03 39.32841 24.70611 39057 ft 485 kts 145°
2026-05-05 20:04 39.27346 24.75675 39056 ft 485 kts 145°
2026-05-05 20:04 39.21863 24.80719 39054 ft 484 kts 145°
2026-05-05 20:05 39.16373 24.85759 39058 ft 484 kts 145°
2026-05-05 20:05 39.10880 24.90792 39058 ft 484 kts 145°
2026-05-05 20:06 39.05231 24.95475 39060 ft 483 kts 150°
2026-05-05 20:06 38.99481 24.99831 39062 ft 483 kts 151°
2026-05-05 20:07 38.93682 25.04203 39065 ft 483 kts 150°
2026-05-05 20:07 38.87896 25.08614 39063 ft 484 kts 150°
2026-05-05 20:08 38.82112 25.13047 39063 ft 484 kts 150°
2026-05-05 20:08 38.76326 25.17479 39062 ft 485 kts 150°
2026-05-05 20:09 38.70533 25.21907 39063 ft 485 kts 150°
2026-05-05 20:09 38.64726 25.26335 39060 ft 486 kts 150°
2026-05-05 20:10 38.58913 25.30759 39067 ft 487 kts 150°
2026-05-05 20:10 38.53083 25.35187 39065 ft 487 kts 151°
2026-05-05 20:11 38.47248 25.39610 39070 ft 488 kts 151°
2026-05-05 20:11 38.41406 25.44031 39069 ft 489 kts 151°
2026-05-05 20:12 38.35557 25.48448 39071 ft 489 kts 151°
2026-05-05 20:12 38.29697 25.52865 39070 ft 489 kts 151°
2026-05-05 20:13 38.23875 25.57245 39067 ft 490 kts 151°
2026-05-05 20:13 38.18006 25.61652 39066 ft 490 kts 151°
2026-05-05 20:14 38.12136 25.66052 39065 ft 490 kts 151°
2026-05-05 20:14 38.06259 25.70449 39067 ft 490 kts 151°
2026-05-05 20:15 38.00381 25.74838 39068 ft 490 kts 151°
2026-05-05 20:15 37.94507 25.79216 39067 ft 490 kts 151°
2026-05-05 20:16 37.88627 25.83590 39067 ft 490 kts 151°
2026-05-05 20:16 37.82745 25.87957 39065 ft 490 kts 152°
2026-05-05 20:17 37.76862 25.92318 39063 ft 490 kts 152°
2026-05-05 20:17 37.70981 25.96668 39064 ft 490 kts 152°
2026-05-05 20:18 37.65092 26.01016 39064 ft 490 kts 152°
2026-05-05 20:18 37.59203 26.05356 39069 ft 491 kts 152°
2026-05-05 20:19 37.53301 26.09697 39061 ft 491 kts 152°
2026-05-05 20:19 37.47405 26.14027 39063 ft 491 kts 152°
2026-05-05 20:20 37.41502 26.18353 39067 ft 491 kts 152°
2026-05-05 20:20 37.35597 26.22673 39068 ft 491 kts 152°
2026-05-05 20:21 37.29690 26.26986 39063 ft 491 kts 152°
2026-05-05 20:21 37.23830 26.31258 39067 ft 491 kts 152°
2026-05-05 20:22 37.17916 26.35561 39064 ft 490 kts 152°
2026-05-05 20:22 37.12009 26.39850 39059 ft 490 kts 152°
2026-05-05 20:23 37.06111 26.44126 39069 ft 490 kts 152°
2026-05-05 20:23 37.00208 26.48397 39060 ft 490 kts 152°
2026-05-05 20:24 36.94309 26.52658 39059 ft 490 kts 152°
2026-05-05 20:24 36.88404 26.56915 39064 ft 489 kts 152°
2026-05-05 20:25 36.82504 26.61162 39067 ft 489 kts 153°
2026-05-05 20:25 36.76642 26.65372 39061 ft 489 kts 153°
2026-05-05 20:26 36.70742 26.69604 39062 ft 489 kts 153°
2026-05-05 20:26 36.64834 26.73832 39060 ft 489 kts 153°
2026-05-05 20:27 36.58931 26.78050 39059 ft 489 kts 153°
2026-05-05 20:27 36.53023 26.82265 39060 ft 489 kts 153°
2026-05-05 20:28 36.47112 26.86473 39064 ft 490 kts 153°
2026-05-05 20:28 36.41198 26.90677 39064 ft 490 kts 153°
2026-05-05 20:29 36.35281 26.94875 39062 ft 490 kts 153°
2026-05-05 20:29 36.29404 26.99037 39063 ft 490 kts 153°
2026-05-05 20:30 36.23482 27.03224 39062 ft 490 kts 153°
2026-05-05 20:30 36.17565 27.07400 39056 ft 490 kts 153°
2026-05-05 20:31 36.11651 27.11566 39057 ft 489 kts 153°
2026-05-05 20:31 36.05734 27.15728 39060 ft 489 kts 153°
2026-05-05 20:32 35.99824 27.19877 39061 ft 489 kts 153°
2026-05-05 20:32 35.93907 27.24024 39061 ft 488 kts 153°
2026-05-05 20:33 35.87996 27.28159 39058 ft 488 kts 153°
2026-05-05 20:33 35.82083 27.32289 39060 ft 488 kts 153°
2026-05-05 20:34 35.76175 27.36408 39060 ft 488 kts 154°
2026-05-05 20:34 35.70258 27.40526 39055 ft 488 kts 154°
2026-05-05 20:35 35.64338 27.44639 39059 ft 488 kts 154°
2026-05-05 20:35 35.58420 27.48745 39063 ft 489 kts 154°
2026-05-05 20:36 35.52493 27.52848 39062 ft 489 kts 154°
2026-05-05 20:36 35.46568 27.56944 39061 ft 489 kts 154°
2026-05-05 20:37 35.40638 27.61036 39060 ft 489 kts 154°
2026-05-05 20:37 35.34740 27.65099 39061 ft 489 kts 154°
2026-05-05 20:38 35.28809 27.69178 39057 ft 489 kts 154°
2026-05-05 20:38 35.22878 27.73250 39057 ft 489 kts 154°
2026-05-05 20:39 35.16944 27.77317 39055 ft 488 kts 154°
2026-05-05 20:39 35.11015 27.81374 39055 ft 488 kts 154°
2026-05-05 20:40 35.05089 27.85422 39056 ft 488 kts 154°
2026-05-05 20:40 34.99162 27.89464 39059 ft 488 kts 154°
2026-05-05 20:41 34.93234 27.93500 39058 ft 488 kts 154°
2026-05-05 20:41 34.87306 27.97529 39058 ft 487 kts 154°
2026-05-05 20:42 34.81423 28.01521 39059 ft 487 kts 154°
2026-05-05 20:42 34.75499 28.05534 39063 ft 487 kts 154°
2026-05-05 20:43 34.69574 28.09541 39062 ft 487 kts 154°
2026-05-05 20:43 34.63643 28.13545 39060 ft 487 kts 154°
2026-05-05 20:44 34.57716 28.17541 39069 ft 487 kts 154°
2026-05-05 20:44 34.51783 28.21534 39067 ft 487 kts 154°
2026-05-05 20:45 34.43862 28.26854 39061 ft 486 kts 155°
2026-05-05 20:45 34.37944 28.30822 39064 ft 486 kts 155°
2026-05-05 20:46 34.32074 28.34751 39065 ft 485 kts 155°
2026-05-05 20:46 34.26174 28.38694 39067 ft 484 kts 155°
2026-05-05 20:47 34.20282 28.42624 39070 ft 484 kts 155°
2026-05-05 20:47 34.14391 28.46549 39070 ft 483 kts 155°
2026-05-05 20:48 34.08507 28.50461 39069 ft 482 kts 155°
2026-05-05 20:48 34.02628 28.54365 39071 ft 482 kts 155°
2026-05-05 20:49 33.96755 28.58258 39074 ft 482 kts 155°
2026-05-05 20:49 33.90882 28.62145 39076 ft 482 kts 155°
2026-05-05 20:50 33.85010 28.66026 39075 ft 482 kts 155°
2026-05-05 20:50 33.79137 28.69903 39079 ft 482 kts 155°
2026-05-05 20:51 33.73262 28.73779 39076 ft 482 kts 154°
2026-05-05 20:51 33.67897 28.78673 39089 ft 488 kts 140°
2026-05-05 20:52 33.62970 28.84303 39077 ft 489 kts 139°
2026-05-05 20:52 33.58049 28.89942 39077 ft 488 kts 140°
2026-05-05 20:53 33.53100 28.95525 39079 ft 488 kts 140°
2026-05-05 20:53 33.48172 29.01033 39082 ft 487 kts 140°
2026-05-05 20:54 33.43208 29.06564 39082 ft 487 kts 140°
2026-05-05 20:54 33.38251 29.12082 39080 ft 486 kts 140°
2026-05-05 20:55 33.33302 29.17585 39081 ft 485 kts 140°
2026-05-05 20:55 33.28355 29.23077 39083 ft 485 kts 140°
2026-05-05 20:56 33.23412 29.28555 39085 ft 484 kts 141°
2026-05-05 20:56 33.18470 29.34024 39083 ft 484 kts 141°
2026-05-05 20:57 33.13534 29.39478 39083 ft 484 kts 141°
2026-05-05 20:57 33.08590 29.44930 39086 ft 484 kts 141°
2026-05-05 20:58 33.03645 29.50376 39088 ft 484 kts 141°
2026-05-05 20:58 32.98724 29.55786 39088 ft 485 kts 141°
2026-05-05 20:59 32.93766 29.61230 39091 ft 485 kts 141°
2026-05-05 20:59 32.88801 29.66671 39086 ft 485 kts 141°
2026-05-05 21:00 32.83828 29.72113 39083 ft 486 kts 141°
2026-05-05 21:00 32.78845 29.77557 39086 ft 486 kts 141°
2026-05-05 21:01 32.73861 29.82994 39091 ft 487 kts 141°
2026-05-05 21:01 32.68867 29.88433 39094 ft 487 kts 141°
2026-05-05 21:02 32.63871 29.93865 39091 ft 487 kts 141°
2026-05-05 21:02 32.58873 29.99293 39090 ft 487 kts 141°
2026-05-05 21:03 32.53874 30.04714 39087 ft 487 kts 141°
2026-05-05 21:03 32.48881 30.10118 39088 ft 486 kts 141°
2026-05-05 21:04 32.43887 30.15507 39089 ft 485 kts 141°
2026-05-05 21:04 32.38932 30.20845 39087 ft 485 kts 141°
2026-05-05 21:05 32.33945 30.26210 39089 ft 484 kts 141°
2026-05-05 21:05 32.28964 30.31562 39089 ft 483 kts 141°
2026-05-05 21:06 32.23987 30.36904 39091 ft 483 kts 141°
2026-05-05 21:06 32.19014 30.42231 39094 ft 482 kts 141°
2026-05-05 21:07 32.14044 30.47547 39095 ft 482 kts 141°
2026-05-05 21:07 32.09105 30.52822 39095 ft 482 kts 141°
2026-05-05 21:08 32.04137 30.58119 39095 ft 481 kts 141°
2026-05-05 21:08 31.99170 30.63408 39094 ft 481 kts 142°
2026-05-05 21:09 31.94197 30.68695 38920 ft 484 kts 142°
2026-05-05 21:09 31.91684 30.71360 38301 ft 487 kts 142°
2026-05-05 21:09 31.89178 30.74021 37705 ft 484 kts 141°
2026-05-05 21:10 31.86676 30.76675 37071 ft 483 kts 141°
2026-05-05 21:10 31.84181 30.79320 36448 ft 482 kts 141°
2026-05-05 21:10 31.81687 30.81960 35800 ft 482 kts 141°
2026-05-05 21:10 31.79195 30.84596 35114 ft 484 kts 141°
2026-05-05 21:11 31.76683 30.87251 34383 ft 486 kts 141°
2026-05-05 21:11 31.74170 30.89904 33787 ft 485 kts 141°
2026-05-05 21:11 31.71673 30.92543 33205 ft 481 kts 141°
2026-05-05 21:11 31.69192 30.95162 32674 ft 477 kts 141°
2026-05-05 21:12 31.66734 30.97754 32149 ft 473 kts 142°
2026-05-05 21:12 31.64296 31.00322 31646 ft 469 kts 142°
2026-05-05 21:12 31.61872 31.02873 31151 ft 466 kts 142°
2026-05-05 21:12 31.59467 31.05403 30658 ft 463 kts 142°
2026-05-05 21:13 31.57079 31.07913 30171 ft 460 kts 142°
2026-05-05 21:13 31.54587 31.10207 29598 ft 450 kts 153°
2026-05-05 21:13 31.51861 31.11897 29058 ft 439 kts 163°
2026-05-05 21:13 31.49006 31.13063 28430 ft 429 kts 173°
2026-05-05 21:14 31.46104 31.13672 27929 ft 420 kts 178°
2026-05-05 21:14 31.43239 31.14163 27423 ft 416 kts 179°
2026-05-05 21:14 31.40420 31.14642 26940 ft 412 kts 179°
2026-05-05 21:14 31.37597 31.15135 26457 ft 409 kts 179°
2026-05-05 21:15 31.34796 31.15637 25988 ft 406 kts 178°
2026-05-05 21:15 31.32017 31.16145 25512 ft 403 kts 178°
2026-05-05 21:15 31.29254 31.16653 25049 ft 400 kts 178°
2026-05-05 21:15 31.26511 31.17158 24574 ft 398 kts 178°
2026-05-05 21:16 31.23779 31.17660 24089 ft 396 kts 178°
2026-05-05 21:16 31.21062 31.18165 23628 ft 394 kts 178°
2026-05-05 21:16 31.18358 31.18671 23075 ft 393 kts 178°
2026-05-05 21:16 31.15671 31.19175 22589 ft 389 kts 178°
2026-05-05 21:17 31.13008 31.19675 22111 ft 386 kts 178°
2026-05-05 21:17 31.10363 31.20171 21648 ft 383 kts 178°
2026-05-05 21:17 31.07744 31.20661 21183 ft 380 kts 178°
2026-05-05 21:17 31.05143 31.21147 20731 ft 377 kts 178°
2026-05-05 21:18 31.02560 31.21629 20283 ft 375 kts 178°
2026-05-05 21:18 30.99997 31.22106 19837 ft 372 kts 178°
2026-05-05 21:18 30.97449 31.22580 19388 ft 370 kts 178°
2026-05-05 21:18 30.94904 31.23054 18925 ft 369 kts 177°
2026-05-05 21:19 30.92373 31.23524 18477 ft 367 kts 177°
2026-05-05 21:19 30.89855 31.23992 17966 ft 366 kts 177°
2026-05-05 21:19 30.87380 31.24452 17506 ft 363 kts 177°
2026-05-05 21:19 30.84862 31.24920 17051 ft 360 kts 177°
2026-05-05 21:20 30.82397 31.25379 16606 ft 357 kts 177°
2026-05-05 21:20 30.79952 31.25833 16166 ft 354 kts 176°
2026-05-05 21:20 30.77526 31.26283 15737 ft 352 kts 176°
2026-05-05 21:20 30.75148 31.26724 15314 ft 349 kts 176°
2026-05-05 21:21 30.72757 31.27167 14891 ft 347 kts 176°
2026-05-05 21:21 30.70371 31.27609 14464 ft 345 kts 176°
2026-05-05 21:21 30.68011 31.28045 14049 ft 343 kts 176°
2026-05-05 21:21 30.65662 31.28480 13573 ft 341 kts 176°
2026-05-05 21:22 30.63325 31.28912 13106 ft 339 kts 176°
2026-05-05 21:22 30.61006 31.29341 12678 ft 336 kts 175°
2026-05-05 21:22 30.58701 31.29767 12250 ft 333 kts 175°
2026-05-05 21:22 30.56423 31.30188 11845 ft 330 kts 175°
2026-05-05 21:23 30.54161 31.30605 11433 ft 328 kts 175°
2026-05-05 21:23 30.51919 31.31019 11018 ft 325 kts 175°
2026-05-05 21:23 30.49691 31.31430 10606 ft 323 kts 174°
2026-05-05 21:23 30.47505 31.31832 10448 ft 312 kts 175°
2026-05-05 21:24 30.45421 31.31885 10297 ft 297 kts 191°
2026-05-05 21:24 30.43418 31.31543 10194 ft 285 kts 193°
2026-05-05 21:24 30.41488 31.31182 10036 ft 278 kts 193°
2026-05-05 21:24 30.39582 31.30822 9709 ft 276 kts 193°
2026-05-05 21:25 30.37689 31.30470 9399 ft 275 kts 192°
2026-05-05 21:25 30.35807 31.30125 9090 ft 273 kts 192°
2026-05-05 21:25 30.33938 31.29787 8785 ft 271 kts 192°
2026-05-05 21:25 30.32074 31.29453 8482 ft 270 kts 192°
2026-05-05 21:26 30.30221 31.29123 8181 ft 269 kts 192°
2026-05-05 21:26 30.28374 31.28796 7876 ft 268 kts 192°
2026-05-05 21:26 30.26537 31.28471 7577 ft 267 kts 192°
2026-05-05 21:26 30.24699 31.28147 7279 ft 267 kts 191°
2026-05-05 21:27 30.22866 31.27825 6974 ft 266 kts 191°
2026-05-05 21:27 30.21039 31.27503 6672 ft 266 kts 191°
2026-05-05 21:27 30.19213 31.27182 6367 ft 265 kts 191°
2026-05-05 21:27 30.17388 31.26862 6059 ft 265 kts 191°
2026-05-05 21:28 30.15573 31.26543 5761 ft 263 kts 191°
2026-05-05 21:28 30.13767 31.26227 5453 ft 262 kts 190°
2026-05-05 21:28 30.11955 31.25909 5112 ft 263 kts 190°
2026-05-05 21:28 30.10161 31.25595 4949 ft 257 kts 190°
2026-05-05 21:29 30.08421 31.25291 4823 ft 249 kts 190°
2026-05-05 21:29 30.06730 31.25005 4676 ft 243 kts 186°
2026-05-05 21:29 30.05034 31.25210 4288 ft 248 kts 168°
2026-05-05 21:29 30.03348 31.25602 4023 ft 247 kts 170°
2026-05-05 21:30 30.01660 31.25958 3770 ft 246 kts 170°
2026-05-05 21:30 30.00044 31.26542 3481 ft 245 kts 144°
2026-05-05 21:30 29.99068 31.28050 3348 ft 230 kts 102°
2026-05-05 21:30 29.99182 31.29803 3137 ft 218 kts 59°
2026-05-05 21:31 30.00182 31.31007 3066 ft 203 kts 37°
2026-05-05 21:31 30.01238 31.32098 2823 ft 204 kts 43°
2026-05-05 21:31 30.02229 31.33233 2727 ft 197 kts 38°
2026-05-05 21:31 30.03265 31.34180 2607 ft 184 kts 36°
2026-05-05 21:32 30.03925 31.34793 2364 ft 182 kts 37°
2026-05-05 21:32 30.05164 31.36084 1919 ft 174 kts 42°
2026-05-05 21:32 30.05973 31.37064 1654 ft 164 kts 44°
2026-05-05 21:32 30.06477 31.37679 1544 ft 152 kts 44°
2026-05-05 21:33 30.07161 31.38530 1338 ft 138 kts 45°
2026-05-05 21:33 30.07790 31.39364 1044 ft 139 kts 46°
2026-05-05 21:33 30.08608 31.40456 753 ft 131 kts 46°
2026-05-05 21:33 30.09203 31.41242 598 ft 134 kts 45°
2026-05-05 21:34 30.09824 31.42063 508 ft 136 kts 46°
2026-05-05 21:34 30.10242 31.42614 462 ft 130 kts 46°
2026-05-05 21:34 30.10744 31.43280 462 ft 87 kts 49°
2026-05-05 21:34 30.11041 31.43546 458 ft 39 kts 24°
2026-05-05 21:35 30.11196 31.43591 451 ft 21 kts 336°
2026-05-05 21:35 30.11247 31.43448 445 ft 22 kts 281°
2026-05-05 21:35 30.11357 31.43317 435 ft 27 kts 318°
2026-05-05 21:35 30.11537 31.43139 416 ft 40 kts 319°
2026-05-05 21:36 30.11757 31.42918 402 ft 43 kts 319°
2026-05-05 21:36 30.11991 31.42685 383 ft 45 kts 319°
2026-05-05 21:36 30.12174 31.42502 372 ft 26 kts 316°
2026-05-05 21:36 30.12138 31.42320 369 ft 26 kts 227°
2026-05-05 21:37 30.12026 31.42168 370 ft 24 kts 229°
2026-05-05 21:37 30.11922 31.42025 367 ft 23 kts 229°
2026-05-05 21:37 30.11813 31.41885 372 ft 26 kts 229°
2026-05-05 21:37 30.11673 31.41696 367 ft 34 kts 229°
2026-05-05 21:38 30.11512 31.41479 368 ft 36 kts 229°
2026-05-05 21:38 30.11409 31.41344 368 ft 18 kts 238°
2026-05-05 21:38 30.11414 31.41197 362 ft 19 kts 241°
2026-05-05 21:38 30.11374 31.41104 361 ft 7 kts 287°
2026-05-05 21:39 30.11407 31.41065 358 ft 1 kts 319°
2026-05-05 21:39 30.11414 31.41059 357 ft 0 kts 319°